TimeEST,TemperatureF,Dew PointF,Humidity,Sea Level PressureIn,VisibilityMPH,Wind Direction,Wind SpeedMPH,Gust SpeedMPH,PrecipitationIn,Events,Conditions,WindDirDegrees,DateUTC
12:15 AM,8.8,5.4,86,30.15,10.0,Calm,Calm,-,N/A,,Clear,0,2013-03-05 05:15:00
12:35 AM,8.8,5.7,87,30.15,10.0,Calm,Calm,-,N/A,,Clear,0,2013-03-05 05:35:00
12:54 AM,7.7,4.5,87,30.15,10.0,Calm,Calm,-,N/A,,Clear,0,2013-03-05 05:54:00
1:34 AM,7.3,4.1,87,30.15,10.0,Calm,Calm,-,N/A,,Clear,0,2013-03-05 06:34:00
1:54 AM,6.8,3.6,87,30.14,10.0,Calm,Calm,-,N/A,,Clear,0,2013-03-05 06:54:00
2:15 AM,5.9,2.5,86,30.14,10.0,Calm,Calm,-,N/A,,Clear,0,2013-03-05 07:15:00
2:34 AM,6.8,3.0,84,30.15,10.0,Calm,Calm,-,N/A,,Clear,0,2013-03-05 07:34:00
2:54 AM,5.0,1.6,86,30.15,10.0,Calm,Calm,-,N/A,,Clear,0,2013-03-05 07:54:00
3:15 AM,3.9,0.3,85,30.14,10.0,Calm,Calm,-,N/A,,Clear,0,2013-03-05 08:15:00
3:34 AM,3.6,0.1,86,30.14,10.0,Calm,Calm,-,N/A,,Clear,0,2013-03-05 08:34:00
3:55 AM,3.9,0.5,86,30.13,10.0,Calm,Calm,-,N/A,,Clear,0,2013-03-05 08:55:00
4:15 AM,3.6,0.1,86,30.13,10.0,Calm,Calm,-,N/A,,Clear,0,2013-03-05 09:15:00
4:34 AM,3.2,-0.4,85,30.12,10.0,Calm,Calm,-,N/A,,Clear,0,2013-03-05 09:34:00
4:55 AM,2.1,-1.7,84,30.12,10.0,Calm,Calm,-,N/A,,Clear,0,2013-03-05 09:55:00
5:15 AM,1.2,-2.6,84,30.11,10.0,Calm,Calm,-,N/A,,Clear,0,2013-03-05 10:15:00
6:14 AM,0.5,-3.1,85,30.11,10.0,NNE,3.5,-,N/A,,Clear,30,2013-03-05 11:14:00
6:34 AM,0.1,-3.8,83,30.11,10.0,NNE,3.5,-,N/A,,Clear,20,2013-03-05 11:34:00
6:55 AM,0.3,-3.6,83,30.10,10.0,Calm,Calm,-,N/A,,Clear,0,2013-03-05 11:55:00
7:14 AM,0.3,-3.3,85,30.10,10.0,NNE,4.6,-,N/A,,Clear,30,2013-03-05 12:14:00
7:55 AM,2.5,-1.5,84,30.11,10.0,Calm,Calm,-,N/A,,Clear,0,2013-03-05 12:55:00
8:14 AM,4.3,0.7,85,30.11,10.0,NNE,3.5,-,N/A,,Clear,20,2013-03-05 13:14:00
8:35 AM,7.3,3.6,85,30.10,10.0,Calm,Calm,-,N/A,,Clear,0,2013-03-05 13:35:00
8:55 AM,10.0,6.1,84,30.10,10.0,Calm,Calm,-,N/A,,Clear,0,2013-03-05 13:55:00
9:14 AM,12.4,8.2,83,30.09,10.0,Calm,Calm,-,N/A,,Clear,0,2013-03-05 14:14:00
9:35 AM,20.8,14.0,75,30.08,10.0,Calm,Calm,-,N/A,,Clear,0,2013-03-05 14:35:00
9:55 AM,23.7,14.5,68,30.08,10.0,NNE,6.9,-,N/A,,Clear,30,2013-03-05 14:55:00
10:14 AM,25.9,15.3,64,30.07,10.0,NNE,6.9,-,N/A,,Clear,30,2013-03-05 15:14:00
10:35 AM,28.2,16.5,62,30.06,10.0,East,5.8,-,N/A,,Clear,90,2013-03-05 15:35:00
10:55 AM,29.3,16.5,59,30.06,10.0,ENE,6.9,-,N/A,,Clear,70,2013-03-05 15:55:00
11:15 AM,29.8,16.3,57,30.04,10.0,ENE,8.1,-,N/A,,Clear,60,2013-03-05 16:15:00
11:35 AM,30.2,16.3,56,30.04,10.0,ENE,8.1,-,N/A,,Clear,70,2013-03-05 16:35:00
11:54 AM,31.1,16.7,55,30.03,10.0,ENE,8.1,-,N/A,,Clear,60,2013-03-05 16:54:00
12:15 PM,31.6,16.7,54,30.03,10.0,ENE,11.5,-,N/A,,Clear,60,2013-03-05 17:15:00
12:35 PM,32.0,17.6,55,30.02,10.0,ENE,8.1,-,N/A,,Clear,70,2013-03-05 17:35:00
12:54 PM,32.2,17.6,55,30.02,10.0,ENE,8.1,-,N/A,,Clear,70,2013-03-05 17:54:00
1:15 PM,32.7,17.6,54,30.01,10.0,NE,9.2,-,N/A,,Clear,50,2013-03-05 18:15:00
1:35 PM,33.1,17.4,53,30.01,10.0,ENE,8.1,-,N/A,,Clear,70,2013-03-05 18:35:00
1:54 PM,32.9,18.0,54,30.00,10.0,NE,9.2,-,N/A,,Clear,50,2013-03-05 18:54:00
2:15 PM,34.0,18.1,52,29.99,10.0,ENE,9.2,-,N/A,,Clear,70,2013-03-05 19:15:00
2:35 PM,33.8,18.9,54,29.98,10.0,NE,8.1,12.7,N/A,,Clear,50,2013-03-05 19:35:00
2:55 PM,34.2,19.0,54,29.98,10.0,NNE,11.5,-,N/A,,Clear,30,2013-03-05 19:55:00
3:15 PM,34.0,19.4,55,29.98,10.0,ENE,10.4,-,N/A,,Clear,60,2013-03-05 20:15:00
3:35 PM,33.8,19.2,55,29.98,10.0,ENE,9.2,-,N/A,,Clear,60,2013-03-05 20:35:00
3:55 PM,33.8,19.2,55,29.98,10.0,ENE,6.9,-,N/A,,Clear,70,2013-03-05 20:55:00
4:15 PM,34.3,19.9,56,29.97,10.0,NE,11.5,-,N/A,,Clear,50,2013-03-05 21:15:00
4:35 PM,33.6,20.1,58,29.97,10.0,ENE,10.4,18.4,N/A,,Clear,70,2013-03-05 21:35:00
4:55 PM,33.4,20.1,58,29.97,10.0,ENE,6.9,16.1,N/A,,Clear,60,2013-03-05 21:55:00
5:15 PM,32.9,19.9,59,29.97,10.0,NE,11.5,-,N/A,,Clear,50,2013-03-05 22:15:00
5:34 PM,32.0,20.1,62,29.97,10.0,NE,13.8,-,N/A,,Clear,40,2013-03-05 22:34:00
5:55 PM,30.7,20.1,65,29.98,10.0,NE,10.4,-,N/A,,Scattered Clouds,40,2013-03-05 22:55:00
6:15 PM,30.2,20.1,66,29.98,10.0,NE,10.4,-,N/A,,Mostly Cloudy,40,2013-03-05 23:15:00
6:34 PM,29.5,20.1,68,29.98,10.0,NE,9.2,16.1,N/A,,Mostly Cloudy,50,2013-03-05 23:34:00
6:55 PM,28.9,19.9,69,29.99,10.0,NE,8.1,-,N/A,,Mostly Cloudy,50,2013-03-05 23:55:00
7:15 PM,28.2,19.9,71,30.00,10.0,NE,11.5,-,N/A,,Overcast,50,2013-03-06 00:15:00
7:35 PM,27.9,20.3,73,30.00,10.0,NE,9.2,-,N/A,,Overcast,40,2013-03-06 00:35:00
7:55 PM,27.5,19.9,73,30.01,10.0,NE,11.5,-,N/A,,Overcast,40,2013-03-06 00:55:00
8:15 PM,27.1,20.1,75,30.02,10.0,NE,12.7,-,N/A,,Overcast,50,2013-03-06 01:15:00
8:35 PM,26.6,19.9,76,30.03,10.0,NE,12.7,18.4,N/A,,Overcast,50,2013-03-06 01:35:00
8:55 PM,26.4,19.8,76,30.04,10.0,ENE,6.9,17.3,N/A,,Overcast,60,2013-03-06 01:55:00
9:15 PM,26.6,19.9,76,30.04,10.0,ENE,4.6,-,N/A,,Overcast,70,2013-03-06 02:15:00
9:35 PM,27.0,20.3,76,30.05,10.0,Calm,Calm,-,N/A,,Overcast,0,2013-03-06 02:35:00
9:55 PM,27.1,20.8,77,30.05,10.0,NNE,3.5,-,N/A,,Overcast,30,2013-03-06 02:55:00
10:15 PM,27.5,21.0,77,30.04,10.0,North,4.6,-,N/A,,Overcast,360,2013-03-06 03:15:00
10:35 PM,27.5,20.8,76,30.04,10.0,North,4.6,-,N/A,,Overcast,350,2013-03-06 03:35:00
10:55 PM,27.5,20.3,74,30.04,10.0,North,5.8,-,N/A,,Overcast,360,2013-03-06 03:55:00
11:14 PM,27.0,19.9,75,30.04,10.0,North,4.6,-,N/A,,Mostly Cloudy,350,2013-03-06 04:14:00
11:35 PM,26.4,19.4,75,30.05,10.0,North,4.6,-,N/A,,Scattered Clouds,350,2013-03-06 04:35:00
11:55 PM,26.2,19.4,75,30.05,10.0,North,3.5,-,N/A,,Mostly Cloudy,350,2013-03-06 04:55:00